Regional Weather Roundup
Issued by NWS

Home | Current Version | Previous Version | Graphics & Text | Print | Product List | Glossary On
Versions: 1 2 3 4 5 6 7 8 9 10 11 12 13 14 15 16 17 18 19 20 21 22 23 24 25 26 27 28 29 30 31 32 33 34 35 36 37 38 39 40 41 42 43 44 45 46 47 48 49 50
814
ASUS44 KLIX 212110
RWRLA
LOUISIANA WEATHER ROUNDUP
NATIONAL WEATHER SERVICE NEW ORLEANS LA
400 PM CDT TUE OCT 21 2014

NOTE: "FAIR" INDICATES FEW OR NO CLOUDS BELOW 12,000 FEET WITH NO
      SIGNIFICANT WEATHER AND/OR OBSTRUCTIONS TO VISIBILITY.
      SKY/WX - SKY CONDITION AND SIGNIFICANT WEATHER.
      TMP - AIR TEMPERATURE.    DP   - DEWPOINT TEMPERATURE.
      RH  - RELATIVE HUMIDITY.  PRES - PRESSURE.
      HX  - HEAT INDEX.         WCI  - WIND CHILL INDEX.

*  THESE STATIONS ARE NOT NWS OR FAA STATIONS AND ARE NOT UNDER
   NWS QUALITY CONTROL.

LAZ040-048-061>063-065-066-069-212200-
SOUTHEAST LOUISIANA

CITY           SKY/WX    TMP DP  RH WIND       PRES   REMARKS
N.O. AUDUBON     N/A     78  57  47 MISG        N/A
N.O. INTL ARPT SUNNY     79  52  38 E5        29.98F
N.O. LAKEFRONT SUNNY     77  55  46 W6        29.98F
N.O. DOWNTOWN* FAIR      79  52  38 N6        29.98F
SLIDELL        SUNNY     82  53  36 NE5       29.97F
BATON ROUGE    SUNNY     81  54  39 VRB5      29.99F
BOOTHVILLE     SUNNY     76  58  53 NE7       29.99S
BELLE CHASSE   SUNNY     80  52  37 NE6       29.98F
BOGALUSA*        N/A     83  50  32 N8        30.00S
NEW ROADS*     FAIR      80  57  45 N6        30.00S
GONZALES*      FAIR      81  56  42 NE6       29.98S
HAMMOND*       SUNNY     84  48  28 CALM      30.00S
HOUMA*         SUNNY     81  54  39 NE9       29.98S
PORT FOURCHON* CLEAR     77  57  50 E10       30.01S

$$

LAZ041-044-053-054-212200-
SOUTHWEST LOUISIANA

CITY           SKY/WX    TMP DP  RH WIND       PRES   REMARKS
LAKE CHARLES   SUNNY     81  57  43 NE12      29.99F
LAFAYETTE      SUNNY     80  56  43 NE6       29.99F
PATTERSON      SUNNY     81  55  41 NE9       30.01S
SALT POINT       N/A     81  57  43 VRB3      29.97S
NEW IBERIA     SUNNY     82  55  39 N9        30.00S
CHENAULT AIRPK NOT AVBL

$$

LAZ027-028-212200-
CENTRAL LOUISIANA

CITY           SKY/WX    TMP DP  RH WIND       PRES   REMARKS
FORT POLK      SUNNY     79  62  55 NE6       30.00F
ALEXANDRIA INT SUNNY     81  60  48 NE8       29.99F
ALEXANDRIA     SUNNY     80  62  54 E7        30.01F

$$

LAZ001-002-212200-
NORTHWEST LOUISIANA

CITY           SKY/WX    TMP DP  RH WIND       PRES   REMARKS
SHREVEPORT     MOSUNNY   82  60  47 VRB6      30.02F
BARKSDALE AFB  MOSUNNY   80  59  49 N5        30.03F
DTN SHREVEPORT MOSUNNY   81  59  47 VRB5      30.02F

$$

LAZ014-016-212200-
NORTHEAST LOUISIANA

CITY           SKY/WX    TMP DP  RH WIND       PRES   REMARKS
MONROE         MOSUNNY   80  60  50 N8        30.03F
TALLULAH       SUNNY     79  58  48 VRB3      30.02F

$$




USA.gov is the U.S. government's official web portal to all federal, state and local government web resources and services.